www.pogodaiklimat.ru

Погода и климат >> Архив погоды >> Гренландия >> Tasiilaq


ПОГОДА в Tasiilaq

  • Прогноз погоды в Tasiilaq
  • Монитор погоды в Tasiilaq

АРХИВ ПОГОДЫ в Tasiilaq

Время (UTC), дата Ветер
(напр.,м/с)
 
Видим.   Явления Облачность Т
(С)
Тd
(С)
f
(%)
Тe
(С)
Тes
(С)
Комфортность P
(гПа)
Po
(гПа)
Тmin
(С)
Tmax
(С)
R
(мм)
R24
(мм)
S
(см)
22 15.08 Ю 3 50 км 9/0 2000 м
[]
+9.9 +2.3 59 +8 +8 1009.9 1003.1
23 15.08 ЮЗ 1 50 км 9/0
[]
+10.1 +1.4 55 +10 +10 1010.0 1003.3
00 16.08 штиль 0 50 км 9/0
[]
+10.3 +1.4 54 +10 +10 1010.0 1003.2
01 16.08 СЗ 2 50 км 10/0
[]
+11.9 -0.7 42 +12 +12 1009.9 1003.1
02 16.08 СЗ 4 50 км 9/0
[]
+13.0 -1.7 36 +12 +12 1009.6 1002.9
03 16.08 ЮВ 4
{7}
50 км 10/0
[]
+8.8 +0.3 55 +6 +6 1009.6 1002.8
04 16.08 ЮВ 5 50 км 10/0
[]
+8.6 -2.2 47 +6 +6 1010.1 1003.2
05 16.08 ЮВ 2 50 км 9/0
[]
+8.7 -1.6 48 +7 +7 1010.3 1003.4
06 16.08 Ю 1
{7}
50 км 10/0 2000 м
[]
+8.5 -1.8 48 +9 +9 1010.5 1003.6 +8.1 +13.3
07 16.08 ЮВ 2 50 км 9/0
[]
+8.9 -1.5 48 +8 +8 1010.9 1004.0
08 16.08 Ю 2 50 км 9/0
[]
+9.1 -2.4 44 +8 +9 1011.3 1004.5
09 16.08 штиль 0 50 км 9/0
[]
+8.4 +1.6 62 +8 +9 1011.6 1004.8
10 16.08 штиль 0 45 км 9/0
[]
+10.7 +0.3 49 +11 +13 1011.7 1004.9
11 16.08 ЮВ 3 45 км 6/0
[]
+9.5 +0.5 53 +8 +11 1012.0 1005.2
12 16.08 СВ 1 35 км 9/0
[]
+12.3 -0.5 41 +14 +18 1012.1 1005.3
13 16.08 ЮВ 3 35 км 6/0
[]
+11.1 +2.6 56 +10 +14 1012.4 1005.7
14 16.08 ЮВ 3 50 км 9/0
[]
+10.4 +1.5 54 +9 +12 1012.7 1005.9
15 16.08 СЗ 2 35 км ясно +11.4 +2.1 53 +11 +18 1012.5 1005.7
16 16.08 СВ 1 40 км ясно +13.0 +0.3 42 +13 +22 1012.4 1005.7
17 16.08 штиль 0 35 км 1/0
[]
+13.8 +1.0 42 +14 +21 1012.2 1005.5
18 16.08 ЮВ 2 35 км ясно +14.8 -0.3 36 +15 +20 1012.2 1005.5 +8.2 +15.2
19 16.08 Ю 1 50 км ясно +15.0 0.0 36 +16 +20 1012.2 1005.5
20 16.08 ЮВ 4 50 км ясно +11.8 +0.5 46 +10 +11 1012.6 1005.8
21 16.08 ЮВ 4 50 км ясно +8.3 +2.2 65 +6 +6 1013.2 1006.4
22 16.08 Ю 2 50 км ясно +8.0 +3.1 71 +7 +7 1013.4 1006.5
23 16.08 штиль 0 45 км ясно +7.2 +2.6 73 +7 +7 1013.4 1006.5
00 17.08 штиль 0 50 км ясно +6.6 +2.6 76 +6 +6 1013.2 1006.3
01 17.08 Ю 1 50 км 1/0
[]
+6.8 +2.8 76 +7 +7 1012.8 1005.9
02 17.08 штиль 0 50 км 9/0
[]
+6.3 +2.3 76 +6 +6 1012.4 1005.5
03 17.08 штиль 0 50 км 4/0
[]
+6.3 +3.2 81 +5 +5 1011.9 1005.0
04 17.08 штиль 0 50 км 1/0
[]
+6.0 +2.3 77 +5 +5 1011.5 1004.6
05 17.08 штиль 0 35 км ясно +5.8 +3.2 83 +5 +5 1011.3 1004.4
06 17.08 штиль 0 40 км ясно +5.1 +2.6 84 +4 +4 1011.3 1004.4 +5.0 +15.7
07 17.08 штиль 0 50 км ясно +4.8 +2.7 86 +4 +4 1011.2 1004.3
08 17.08 штиль 0 45 км ясно +6.3 +3.6 83 +5 +6 1011.2 1004.3
09 17.08 ЮВ 2 45 км ясно +7.4 +3.3 75 +6 +7 1011.2 1004.3
10 17.08 штиль 0 40 км ясно +7.3 +3.5 77 +7 +10 1011.0 1004.2
11 17.08 ЮВ 2 45 км ясно +9.2 +1.7 59 +8 +13 1010.8 1004.0
12 17.08 ЮВ 3 50 км ясно +9.5 +2.6 62 +8 +13 1010.7 1003.9
13 17.08 Ю 3 50 км ясно +9.8 +0.7 53 +8 +14 1010.7 1003.9
14 17.08 ЮВ 3 45 км ясно +10.6 +0.3 49 +9 +16 1010.5 1003.7
15 17.08 ЮВ 3 50 км ясно +10.8 +0.8 50 +9 +16 1010.4 1003.6
16 17.08 ЮВ 4 40 км ясно +10.1 +0.8 52 +8 +13 1010.3 1003.5
17 17.08 ЮВ 4 45 км ясно +9.5 +2.5 62 +7 +11 1010.4 1003.6
18 17.08 ЮВ 5 45 км ясно +9.1 +4.0 70 +6 +9 1010.3 1003.5 +4.8 +11.0
19 17.08 Ю 3 45 км ясно +10.0 +3.9 66 +8 +10 1010.4 1003.6
20 17.08 Ю 3 40 км ясно +9.7 +2.9 63 +8 +9 1010.4 1003.6
23 17.08 Ю 3 45 км ясно +7.4 +3.8 78 +5 +5 1010.9 1004.0
00 18.08 ЮВ 3 50 км ясно +6.9 +4.6 85 +4 +4 1011.2 1004.4
03 18.08 штиль 0 50 км ясно +6.7 +2.2 73 +6 +6 1011.2 1004.4
04 18.08 штиль 0 50 км ясно +6.8 +2.4 74 +6 +6 1011.2 1004.3
05 18.08 ЮЗ 1 50 км ясно +5.5 +2.2 79 +4 +4 1011.0 1004.1
06 18.08 З 2 50 км ясно +6.0 +2.2 77 +4 +4 1010.9 1004.0 +5.1 +10.1
07 18.08 штиль 0 50 км ясно +5.3 +0.7 72 +5 +5 1011.2 1004.2
08 18.08 штиль 0 50 км ясно +6.5 +1.8 72 +6 +6 1011.1 1004.2
09 18.08 штиль 0 50 км ясно +8.9 +2.2 63 +8 +10 1011.1 1004.2
10 18.08 ЮВ 1 45 км ясно +9.3 +1.6 59 +9 +12 1011.1 1004.3
11 18.08 ЮВ 2 40 км ясно +10.2 +3.5 63 +9 +13 1011.0 1004.2
12 18.08 В 3 45 км ясно +10.5 +3.8 63 +9 +13 1010.9 1004.1
13 18.08 ЮВ 3 45 км ясно +11.1 +4.1 62 +10 +16 1011.0 1004.2
14 18.08 ЮВ 3 45 км ясно +10.9 +4.1 63 +9 +16 1010.8 1004.0
15 18.08 ЮВ 3 40 км ясно +10.2 +3.8 64 +8 +15 1010.6 1003.8
16 18.08 ЮВ 4 35 км ясно +9.7 +5.2 74 +7 +12 1010.7 1003.9
17 18.08 ЮВ 4 40 км ясно +9.6 +4.2 69 +7 +11 1010.7 1003.9
18 18.08 ЮВ 4 40 км ясно +9.3 +4.3 71 +7 +10 1010.8 1004.0 +5.1 +11.6
19 18.08 ЮВ 3 40 км 9/9 750 м
[]
+8.5 +5.3 80 +6 +6 1010.9 1004.1
20 18.08 ЮВ 3 45 км 9/9 700 м
[]
+8.6 +5.1 79 +6 +6 1011.1 1004.3
21 18.08 ЮВ 2 50 км 6/6 630 м
[]
+8.5 +4.0 73 +7 +7 1011.1 1004.3
22 18.08 штиль 0 50 км 6/6 630 м
[]
+8.3 +3.7 73 +8 +8 1011.3 1004.5
23 18.08 штиль 0 50 км 9/9 720 м
[]
+8.2 +3.8 74 +8 +8 1011.5 1004.6
00 19.08 штиль 0 50 км 4/4 450 м
[]
+7.3 +3.4 76 +7 +7 1011.5 1004.6
01 19.08 штиль 0 50 км ясно +6.9 +3.3 78 +6 +6 1011.5 1004.6
02 19.08 З 2 50 км 6/6 1140 м
[]
+7.2 +3.9 80 +5 +5 1011.5 1004.6
03 19.08 З 2 50 км 9/9 1200 м
[]
+7.7 +4.2 78 +6 +6 1011.5 1004.6
04 19.08 штиль 0 50 км 10/10 720 м
[]
+7.4 +4.6 82 +7 +7 1011.4 1004.6
05 19.08 штиль 0 50 км 10/10 600 м
[]
+8.0 +4.7 80 +7 +7 1011.3 1004.5
06 19.08 ЮВ 1 16 км осадки {морось} 10/10 1000 м
[]
+7.8 +5.2 84 +8 +8 1011.4 1004.5 +6.4 +9.5 0.0
07 19.08 штиль 0 30 км в посл. час морось {ливн. осадки} 10/10 870 м
[]
+7.4 +5.6 88 +6 +6 1011.4 1004.5
08 19.08 штиль 0 50 км 10/10 800 м
[]
+7.7 +5.3 85 +7 +7 1011.7 1004.8
09 19.08 штиль 0 29 км слаб. ливневой дождь 9/9 600 м
[]
+8.3 +5.4 82 +8 +8 1011.8 1005.0 0.1
10 19.08 штиль 0 45 км {ливн. осадки} 10/10 630 м
[]
+8.7 +5.3 79 +8 +8 1011.8 1004.9
11 19.08 штиль 0 30 км слаб. дождь {морось} 10/10 840 м
[]
+9.1 +5.4 78 +8 +8 1011.7 1004.9
12 19.08 ЮВ 2 30 км слаб. ливневой дождь 10/10 1140 м
[]
+8.8 +5.5 80 +7 +7 1012.0 1005.2 0.0
13 19.08 Ю 2 30 км {ливн. осадки} 10/10 840 м
[]
+9.9 +5.6 75 +9 +9 1012.1 1005.3
14 19.08 Ю 1 45 км 9/9 870 м
[]
+10.6 +5.3 70 +11 +12 1012.0 1005.3
15 19.08 ЮВ 3 40 км {ливн. осадки} 9/9 870 м
[]
+10.0 +5.2 72 +8 +9 1011.9 1005.1 0.0
16 19.08 ЮВ 2 40 км 9/9 750 м
[]
+10.5 +5.4 71 +9 +10 1011.6 1004.8
17 19.08 ЮВ 3 45 км 9/0 2000 м
[]
+10.5 +5.3 70 +9 +12 1011.2 1004.4
18 19.08 ЮВ 2 35 км {ливн. осадки} 1/0
[]
+10.9 +5.2 68 +10 +14 1011.0 1004.2 +7.4 +11.7
19 19.08 С 1 45 км 1/0
[]
+11.1 +4.3 63 +12 +15 1010.8 1004.0
20 19.08 штиль 0 45 км 6/0
[]
+10.9 +4.7 66 +10 +12 1010.7 1003.9
21 19.08 штиль 0 40 км 1/0
[]
+10.0 +5.3 73 +9 +10 1010.4 1003.6
22 19.08 штиль 0 30 км ясно +8.8 +5.8 81 +8 +8 1010.4 1003.6
23 19.08 штиль 0 40 км 1/0
[]
+7.9 +5.8 87 +7 +7 1010.4 1003.6
00 20.08 штиль 0 45 км ясно +7.8 +5.5 85 +7 +7 1010.3 1003.4
01 20.08 ЮВ 2 30 км ясно +7.3 +5.8 90 +5 +5 1010.1 1003.2
02 20.08 Ю 1 28 км ясно +6.8 +5.8 93 +7 +7 1010.0 1003.2
03 20.08 штиль 0 24 км ясно +6.3 +5.6 95 +5 +5 1009.8 1003.0
04 20.08 ЮВ 2 100 м туман {дымка} 1/1 30 м
[]
+5.7 +5.5 99 +3 +3 1009.6 1002.7
05 20.08 Ю 2 100 м туман 10/10 30 м
[]
+5.3 +5.1 99 +3 +3 1009.6 1002.7
06 20.08 штиль 0 100 м туман {дымка} ?/? +5.2 +5.1 99 +4 +4 1009.5 1002.6 +5.1 +11.5
07 20.08 штиль 0 100 м туман 10/10 30 м
[]
+4.2 +4.1 99 +3 +3 1009.5 1002.6
08 20.08 штиль 0 100 м туман 10/10 30 м
[]
+4.6 +4.5 99 +3 +3 1009.5 1002.6
09 20.08 штиль 0 100 м туман ?/? +4.9 +4.8 99 +4 +4 1009.6 1002.7
10 20.08 штиль 0 100 м туман 10/10 30 м
[]
+5.0 +4.8 99 +4 +4 1009.7 1002.8
11 20.08 штиль 0 200 м туман 10/10 30 м
[]
+5.2 +5.0 99 +4 +4 1009.8 1002.9
12 20.08 ЮВ 3 1800 м в посл. час туман {дымка} 10/10 30 м
[]
+5.1 +4.7 97 +2 +2 1010.1 1003.2
13 20.08 В 3 50 км ясно +6.6 +4.7 88 +3 +9 1010.2 1003.3
14 20.08 ЮВ 3 45 км ясно +7.9 +4.5 79 +6 +12 1010.1 1003.3
15 20.08 ЮВ 3 45 км ясно +8.2 +4.9 80 +6 +12 1010.1 1003.3
16 20.08 ЮВ 4 45 км ясно +7.5 +4.8 83 +4 +9 1010.1 1003.3
17 20.08 Ю 4 30 км ясно +8.2 +4.6 78 +5 +9 1010.1 1003.3
18 20.08 Ю 3 30 км ясно +7.3 +3.8 78 +4 +8 1010.5 1003.7 +4.2 +9.5
19 20.08 ЮВ 4 30 км 1/1 1140 м
[]
+7.1 +4.1 81 +4 +6 1010.8 1003.9
20 20.08 В 1 40 км ясно +8.9 -0.1 53 +9 +10 1011.0 1004.2
21 20.08 С 1 45 км 1/1 1260 м
[]
+7.9 +1.5 64 +8 +9 1011.2 1004.3
22 20.08 штиль 0 45 км ясно +7.5 +0.5 61 +7 +7 1011.5 1004.7
23 20.08 штиль 0 45 км ясно +7.1 +0.5 63 +7 +7 1012.0 1005.1
00 21.08 штиль 0 40 км ясно +6.4 +0.4 65 +6 +6 1012.1 1005.2
01 21.08 штиль 0 50 км ясно +6.0 -0.1 65 +5 +5 1012.3 1005.4
02 21.08 штиль 0 50 км 1/0 2000 м
[]
+6.5 -2.3 53 +6 +6 1012.5 1005.6
03 21.08 штиль 0 50 км ясно +6.1 +1.2 71 +5 +5 1012.5 1005.6
04 21.08 Ю 2 25 км ясно +4.6 +3.8 95 +2 +2 1012.8 1005.9
05 21.08 штиль 0 40 км ясно +4.6 +3.3 91 +4 +4 1012.9 1005.9
06 21.08 штиль 0 40 км {дымка} 9/0 2000 м
[]
+4.4 +3.2 92 +3 +3 1013.1 1006.1 +4.3 +9.3
07 21.08 штиль 0 30 км 10/0 2000 м
[]
+4.9 +3.7 92 +4 +4 1013.3 1006.3
08 21.08 Ю 3 21 км 10/0 2000 м
[]
+5.1 +3.6 90 +2 +2 1013.4 1006.5
09 21.08 Ю 2 26 км 10/0 2000 м
[]
+5.2 +3.4 88 +3 +3 1013.8 1006.9
10 21.08 Ю 3 26 км 9/0 2000 м
[]
+5.6 +3.7 88 +3 +4 1013.8 1006.8
11 21.08 Ю 3 26 км 9/0 2000 м
[]
+5.6 +3.6 87 +3 +4 1013.9 1007.0
12 21.08 ЮВ 2 25 км 9/0 2000 м
[]
+6.3 +3.7 83 +4 +7 1014.1 1007.2
13 21.08 ЮВ 2 21 км 9/0 2000 м
[]
+7.0 +3.5 78 +5 +8 1014.1 1007.2
14 21.08 ЮВ 2 21 км 9/0 2000 м
[]
+7.2 +3.6 78 +5 +9 1014.1 1007.2
15 21.08 ЮВ 2 28 км 9/0 2000 м
[]
+8.3 +3.2 70 +7 +11 1014.0 1007.1
16 21.08 ЮВ 2 35 км ясно +9.5 +2.1 60 +9 +16 1013.8 1007.0
17 21.08 Ю 1 40 км ясно +10.8 +0.6 49 +11 +17 1013.6 1006.8
18 21.08 ЮВ 1 40 км ясно +11.2 +0.5 48 +11 +16 1013.5 1006.7 +4.4 +11.4
19 21.08 Ю 2 50 км ясно +11.2 0.0 46 +11 +13 1013.4 1006.6
20 21.08 Ю 1 45 км ясно +11.1 -1.2 42 +12 +14 1013.2 1006.4
21 21.08 ЮВ 1 50 км ясно +10.5 -1.2 44 +11 +11 1013.1 1006.3
22 21.08 ЮВ 1 50 км ясно +9.2 -0.3 51 +10 +10 1013.4 1006.5
23 21.08 СЗ 1 40 км 4/0
[]
+7.9 +2.8 70 +7 +7 1013.5 1006.7
00 22.08 З 1 45 км {дымка} 1/0
[]
+6.8 +1.9 71 +6 +6 1013.7 1006.8
01 22.08 З 2 50 км ясно +7.3 +1.6 67 +6 +6 1013.6 1006.7
02 22.08 З 2 50 км 9/0
[]
+7.1 +1.1 66 +6 +6 1013.6 1006.7
03 22.08 З 2 50 км 4/0 2000 м
[]
+6.7 +0.9 66 +5 +5 1013.2 1006.3
04 22.08 З 2 50 км 6/0 2000 м
[]
+6.8 +1.0 66 +5 +5 1013.0 1006.1
05 22.08 штиль 0 50 км 9/0 2000 м
[]
+6.9 +0.6 64 +6 +6 1013.0 1006.1
06 22.08 З 2 50 км 10/0 2000 м
[]
+7.4 +0.8 63 +6 +6 1012.8 1006.0 +6.3 +11.5
07 22.08 штиль 0 50 км 10/0 2000 м
[]
+6.4 +2.0 73 +6 +6 1012.7 1005.8
08 22.08 ЮВ 1 40 км 10/0
[]
+7.4 +1.8 68 +7 +7 1012.9 1006.0
09 22.08 Ю 2 40 км 10/0
[]
+7.2 -0.2 59 +5 +6 1012.9 1006.0
10 22.08 ЮВ 1 40 км 9/0
[]
+7.1 +1.5 68 +6 +8 1013.1 1006.2
11 22.08 штиль 0 35 км 9/9 1500 м
[]
+7.2 +1.6 68 +7 +7 1013.1 1006.2
12 22.08 Ю 1 30 км 9/0 2000 м
[]
+7.3 +2.4 71 +8 +11 1013.3 1006.4
13 22.08 ЮВ 3 40 км 9/0
[]
+7.2 +1.6 68 +5 +8 1013.4 1006.5
14 22.08 ЮВ 2 45 км 9/9 1500 м
[]
+7.5 +0.6 62 +6 +6 1013.6 1006.7
15 22.08 ЮВ 2 40 км 9/0 2000 м
[]
+7.8 +0.5 60 +6 +10 1013.5 1006.7
17 22.08 ЮВ 2 50 км 9/0 2000 м
[]
+7.3 -0.8 56 +6 +8 1013.5 1006.6
18 22.08 ЮВ 2 45 км 9/0 2000 м
[]
+7.0 0.0 61 +5 +7 1013.5 1006.6 +6.2 +8.0
19 22.08 ЮВ 4 30 км слаб. морось 9/0 2000 м
[]
+6.0 +2.5 78 +2 +3 1013.5 1006.6
20 22.08 Ю 3 30 км {ливн. осадки, морось} 9/9 1500 м
[]
+5.6 +2.7 82 +2 +2 1013.7 1006.7
21 22.08 Ю 3 30 км {ливн. осадки, морось} 9/0 2000 м
[]
+5.5 +2.9 83 +2 +2 1013.7 1006.8 0.0

 

Местоположение метеостанции Tasiilaq (Гренландия): широта 65.60 долгота -37.63 высота над уровнем моря 52 м.

В архиве по умолчанию представлена погода в Tasiilaq за последнюю неделю. Архивные данные за месяц целиком и за предыдущие месяцы, начиная с января 2011 года, Вы можете получить, выбрав интересующий диапазон дат из раскрывающегося списка и нажав кнопку "Ввод!".


*Определитесь, кто Вы:
робот инопланетянин человек

Внимание! Время в таблицах - всемирное. Для получения местного времени необходимо прибавить поправку, которая равна -3 ч.

Смотрите также архив погоды в соседних городах и на ближайших метеорологических станциях:

Погода в Kulusuk (Гренландия) (23 км)
Погода в Ikermiit (Гренландия) (154 км)
Погода в Aputiteq Ads (Гренландия) (337 км)
Погода в Ikermiuarsuk (Гренландия) (462 км)
Погода в Kangerlussuaq (Гренландия) (604 км)
Погода в Narsarsuaq (Гренландия) (630 км)
Погода в Болюнгарвик Шелфви (Исландия) (655 км)
Погода в Болунгарвике (Исландия) (655 км)
Погода в Prins Christian Sun (Гренландия) (678 км)
Погода в Mittarfik Nuuk (Гренландия) (679 км)

Пояснения к столбцам:

Ветер - указаны скорость ветра в м/с - средняя за 10 мин, порывы в срок и между сроками (в фигурных скобках) и направление, откуда дует ветер: С - северный, СВ - северо-восточный, В - восточный, ЮВ - юго-восточный, Ю - южный, ЮЗ - юго-западный, З - западный, СЗ - северо-западный.
Видимость - горизонтальная дальность видимости в метрах или километрах. При видимости от 1 до 10 км при отсутствии осадков обычно наблюдается дымка, при ухудшении видимости до 1 км и менее - туман. В сухую погоду видимость может ухудшаться дымом, пылью или мглою.
Явления - указаны атмосферные явления, наблюдавшиеся в срок или в последний час перед сроком; фигурными скобками обозначены явления, наблюдавшиеся между сроками (за 1-3 часа до срока); квадратными скобками обозначены град или гололедные отложения с указанием их диаметра в мм.
Облачность - указаны через наклонную черту общая и нижняя облачность в баллах и высота нижней границы облаков в метрах; квадратными скобками обозначены формы облаков: Ci - перистые, Cs - перисто-слоистые, Cc - перисто-кучевые, Ac - высококучевые, As - высокослоистые, Sc - слоисто-кучевые, Ns - слоисто-дождевые, Cu - кучевые, Cb - кучево-дождевые. Подробнее классификацию облаков см. в Атласе облаков (PDF).
T - Температура воздуха - температура, измеренная на высоте 2 м над землей.
Td - Температура точки росы - температура, при понижении до которой содержащийся в воздухе водяной пар достигнет насыщения.
f - Относительная влажность воздуха - влажноcть воздуха, измеренная на высоте 2 м над землей.
Te - Эффективная температура - температура, которую ощущает одетый по сезону человек в тени. Характеристика душности погоды. При расчете учитывается влияние влажности воздуха и скорости ветра на теплоощущения человека.
Tes - Эффективная температура на солнце - температура, которую ощущает человек, с поправкой на солнечный нагрев. Характеристика знойности погоды. Зависит от высоты солнца над горизонтом, облачности и скорости ветра. Ночью, в пасмурную погоду, а также при ветре 12 м/с и более поправка равна нулю.
P - Атмосферное давление - приведенное к уровню моря атмосферное давление.
Po - Атмосферное давление - измеренное на уровне метеостанции атмосферное давление.
Tmin - Минимальная температура - минимум температуры воздуха на высоте 2 м над землей.
Tmax - Максимальная температура - максимум температуры воздуха на высоте 2 м над землей.
R - Количество осадков - Количество выпавших осадков за период времени, мм. При наведении курсора мыши на число - период времени, за который выпало указанное количество осадков.
R24 - Количество осадков - Количество выпавших осадков за 24 часа, мм.
S - Снежный покров - Высота снежного покрова, см. При наведении курсора мыши на число - состояние снежного покрова и степень покрытия местности в баллах.